Retour au catalogue

METEOR 2-11 DEB

ActifPO
NORAD 42457·DEBRIS·🇷🇺 Russia

Lancé Jul 5, 1984 depuis Plesetsk Cosmodrome

Loading…

Prochains Passages (prochaines 24 heures)

TLE

VieillissantSource: Space-Track

Époque: Sep 6, 2026, 21:36 UTC

1 42457U 84072T   26249.90065020  .00002332  00000-0  17256-2 0  9991
2 42457  82.5252 319.2929 0021331 188.4415 171.6395 13.94803444492056

Suivez METEOR 2-11 DEB en temps réel avec AllMySat

Download on the App Store